Overview Statistics Trail Chart Weather Telemetry Raw packets
 

This is the latest recevied weather packets stored in our database for station/object LA4M-10. If no packets are shown the sender has not sent any weather packets the latest 10 day(s).

<< 5 6 7 8 9 10 11 >>
Time Temp. Humidity Pressure Rain* Wind** Luminosity Snow
1788498063 6.67° C 100% 934.6 hPa - - - -
1788497163 6.67° C 100% 934.7 hPa - - - -
1788496263 6.11° C 100% 934.8 hPa - - - -
1788495363 6.11° C 100% 935 hPa - - - -
1788494463 6.11° C 100% 935.1 hPa - - - -
1788493563 5.56° C 100% 935.2 hPa - - - -
1788492663 6.11° C 100% 935.4 hPa - - - -
1788491763 6.11° C 100% 935.5 hPa - - - -
1788490863 6.11° C 100% 935.6 hPa - - - -
1788489962 6.11° C 100% 935.7 hPa - - - -
1788489062 6.11° C 100% 935.8 hPa - - - -
1788488162 6.11° C 100% 936 hPa - - - -
1788487262 6.11° C 100% 936 hPa - - - -
1788486362 6.11° C 100% 936.3 hPa - - - -
1788485462 6.11° C 100% 936.3 hPa - - - -
1788484562 6.11° C 100% 936.5 hPa - - - -
1788483662 6.11° C 100% 936.5 hPa - - - -
1788482762 6.11° C 100% 936.8 hPa - - - -
1788481861 6.11° C 100% 936.9 hPa - - - -
1788480961 6.67° C 100% 937.2 hPa - - - -
1788480061 6.67° C 100% 937.3 hPa - - - -
1788479161 6.67° C 100% 937.4 hPa - - - -
1788478261 6.67° C 100% 937.5 hPa - - - -
1788477361 7.22° C 100% 937.7 hPa - - - -
1788476461 7.22° C 100% 937.8 hPa - - - -

* Rain since midnight (hover to see other rain measurements)
** Current wind speed in m/s (hover to see current wind gust speed)